{"data":{"norad_id":62287,"intl_designator":"2024-237W","name":"STARLINK-33546","alt_names":[],"object_type":"PAYLOAD","status":"ACTIVE","operator":null,"country":"US","launch_date":"2024-12-08","launch_site_code":"AFETR","launch_vehicle":null,"mission":null,"orbit_class":"UNKNOWN","rcs_meters":null,"size_class":null,"mass_kg":null,"dimensions":null,"purposes":["comms"],"wikipedia_slug":null,"has_3d_model":false,"image_url":null,"decayed_at":null,"tle_current":{"epoch":"2026-09-21T05:00:28.042560Z","epoch_age_seconds":116458,"freshness":"FRESH","line1":"1 62287U 24237W   26264.20865790  .00015775  00000+0  58128-3 0  9991","line2":"2 62287  43.0011 192.2017 0001737 272.7036  87.3617 15.27595271101001","mean_motion":15.27595271,"eccentricity":0.0001737,"inclination_deg":43.0011,"raan_deg":192.2017,"arg_perigee_deg":272.7036,"mean_anomaly_deg":87.3617,"bstar":0.00058128,"rev_number":10100,"period_min":94.265806351793,"perigee_km":481.81158947068,"apogee_km":484.19514963506,"semimajor_km":6861.1403695529,"source":"CELESTRAK","updated_at":"2026-09-22T09:00:49.569989Z"}}}